Abakan, Russia

6:59 PM +07 on November 22, 2019 (GMT +0700)
Abakan

Weather History for UNAA - September, 2019

Change the Weather History Date:

Thursday, September 19, 2019

  Actual Average (WUND) Record (WUND)
Temperature  
Mean Temperature 62 °F -  
Max Temperature 73 °F - - (-1)
Min Temperature 50 °F - - (-1)
Degree Days  
Heating Degree Days 4    
Growing Degree Days 12 (Base 50)    
Moisture  
Dew Point 53 °F    
Average Humidity 79    
Maximum Humidity 100    
Minimum Humidity 53    
Precipitation  
Precipitation 0.00 in - - ()
Sea Level Pressure  
Sea Level Pressure 30.09 in    
Wind  
Wind Speed 3 mph ()    
Max Wind Speed 7 mph    
Max Gust Speed -    
Visibility 5.3 miles    
Events Rain    
Averages and records for this station are not official NWS values.
T = Trace of Precipitation, MM = Missing Value Source: Averaged Metar Reports

Daily Weather History Graph

Daily Weather History Graph

Search for Another Location

Airport or City:

Astronomy

Sep. 19, 2019 Rise Set
Actual Time 6:33 AM +07 7:02 PM +07
Civil Twilight 5:58 AM +07 7:37 PM +07
Nautical Twilight 5:16 AM +07 8:19 PM +07
Astronomical Twilight 4:31 AM +07 9:03 PM +07
Moon 9:12 PM +07 (9/19) 11:44 AM +07 (9/19)
Length of Visible Light 13h 38m
Length of Day
12h 28m
Waning Gibbous, 78% of the Moon is Illuminated
Sep 19
Waning Gibbous
Sep 22
Last Quarter
Sep 29
New
Oct 5
First Quarter
Oct 14
Full

Hourly Weather History & Observations

Time (+07) Temp. Dew Point Humidity Pressure Visibility Wind Dir Wind Speed Gust Speed Precip Events Conditions
12:00 AM 57.2 °F 51.8 °F 82% 30.15 in 6.2 mi South 6.7 mph - N/A Rain Light Rain Showers
12:30 AM 55.4 °F 51.8 °F 88% 30.15 in 6.2 mi SSE 4.5 mph - N/A Rain Light Rain Showers
1:00 AM 55.4 °F 51.8 °F 88% 30.12 in 6.2 mi ESE 4.5 mph - N/A   Scattered Clouds
1:30 AM 55.4 °F 51.8 °F 88% 30.12 in - ESE 2.2 mph - N/A   Clear
2:00 AM 55.4 °F 51.8 °F 88% 30.12 in - SE 4.5 mph - N/A   Clear
2:30 AM 55.4 °F 51.8 °F 88% 30.12 in - SE 4.5 mph - N/A   Clear
3:00 AM 55.4 °F 51.8 °F 88% 30.12 in - Calm Calm - N/A   Clear
3:30 AM 55.4 °F 51.8 °F 88% 30.12 in 6.2 mi SSE 6.7 mph - N/A Rain Light Rain Showers
4:00 AM 53.6 °F 51.8 °F 94% 30.12 in - NNE 4.5 mph - N/A   Clear
5:00 AM 55.4 °F 51.8 °F 88% 30.12 in - WSW 2.2 mph - N/A   Clear
5:30 AM 53.6 °F 51.8 °F 94% 30.12 in - Calm Calm - N/A   Clear
6:00 AM 51.8 °F 50.0 °F 94% 30.12 in 5.6 mi Calm Calm - N/A   Unknown
6:30 AM 51.8 °F 51.8 °F 100% 30.12 in - ENE 2.2 mph - N/A   Clear
7:00 AM 50.0 °F 50.0 °F 100% 30.12 in 5.6 mi ENE 2.2 mph - N/A   Unknown
7:30 AM 53.6 °F 53.6 °F 100% 30.12 in - ENE 2.2 mph - N/A   Clear
8:00 AM 57.2 °F 51.8 °F 82% 30.12 in - SSE 4.5 mph - N/A   Clear
8:30 AM 57.2 °F 53.6 °F 88% 30.12 in - SE 4.5 mph - N/A   Clear
9:00 AM 57.2 °F 53.6 °F 88% 30.12 in - SE 4.5 mph - N/A   Clear
9:30 AM 59.0 °F 53.6 °F 82% 30.12 in - ESE 4.5 mph - N/A   Clear
10:00 AM 60.8 °F 51.8 °F 72% 30.12 in - Calm Calm - N/A   Clear
11:00 AM 64.4 °F 53.6 °F 68% 30.09 in - SSE 4.5 mph - N/A   Clear
11:30 AM 64.4 °F 51.8 °F 64% 30.09 in - SSE 6.7 mph - N/A   Clear
12:00 PM 66.2 °F 53.6 °F 64% 30.09 in - South 4.5 mph - N/A   Clear
12:30 PM 66.2 °F 53.6 °F 64% 30.09 in - South 4.5 mph - N/A   Clear
1:00 PM 68.0 °F 51.8 °F 56% 30.06 in - South 4.5 mph - N/A   Clear
1:30 PM 69.8 °F 51.8 °F 53% 30.06 in - SSE 4.5 mph - N/A   Clear
2:00 PM 69.8 °F 55.4 °F 60% 30.06 in - ESE 4.5 mph - N/A   Clear
2:30 PM 71.6 °F 55.4 °F 57% 30.04 in - ESE 4.5 mph - N/A   Clear
3:00 PM 73.4 °F 55.4 °F 53% 30.04 in - East 4.5 mph - N/A   Clear
3:30 PM 73.4 °F 55.4 °F 53% 30.04 in - East 2.2 mph - N/A   Clear
4:00 PM 71.6 °F 57.2 °F 60% 30.04 in - East 4.5 mph - N/A   Clear
4:30 PM 71.6 °F 57.2 °F 60% 30.04 in - ENE 4.5 mph - N/A   Clear
5:00 PM 73.4 °F 57.2 °F 57% 30.04 in - East 2.2 mph - N/A   Clear
5:30 PM 69.8 °F 57.2 °F 64% 30.04 in - ENE 4.5 mph - N/A   Clear
6:00 PM 69.8 °F 55.4 °F 60% 30.04 in - East 4.5 mph - N/A   Clear
6:30 PM 68.0 °F 55.4 °F 64% 30.04 in - ENE 2.2 mph - N/A   Clear
7:00 PM 62.6 °F 57.2 °F 82% 30.04 in - NNE 2.2 mph - N/A   Clear
7:30 PM 60.8 °F 55.4 °F 82% 30.04 in 5.6 mi Calm Calm - N/A   Unknown
8:00 PM 59.0 °F 55.4 °F 88% 30.06 in - Calm Calm - N/A   Clear
8:30 PM 57.2 °F 55.4 °F 94% 30.06 in - North 2.2 mph - N/A   Clear
9:00 PM 57.2 °F 53.6 °F 88% 30.06 in 5.6 mi Calm Calm - N/A   Unknown
9:30 PM 53.6 °F 51.8 °F 94% 30.06 in 4.3 mi North 2.2 mph - N/A   Unknown
10:00 PM 55.4 °F 53.6 °F 94% 30.06 in 5.0 mi North 2.2 mph - N/A   Unknown
10:30 PM 53.6 °F 51.8 °F 94% 30.06 in 5.0 mi North 2.2 mph - N/A   Unknown
11:00 PM 53.6 °F 51.8 °F 94% 30.06 in 4.3 mi North 2.2 mph - N/A   Unknown
11:30 PM 50.0 °F 50.0 °F 100% 30.06 in 3.1 mi North 2.2 mph - N/A   Mist